Location: Castiglione Fibocchi
(43.5333°N, 11.7667°E)
Time: 13:46:28
(UTC+00:00)

Cosmos 1844 - Pass Details

Date: 15 August 2020
Orbit: 824 x 866 km, 70.9° (Epoch: 25 September)

Event Time Altitude Azimuth Distance (km) Brightness Sun altitude
Exits shadow 03:37:48 - 235° (SW) 2,610 5.6 -7.5°
Reaches altitude 10° 03:38:07 10° 236° (WSW) 2,503 5.5 -7.5°
Maximum altitude 03:43:26 38° 304° (WNW) 1,304 4.5 -6.6°
Drops below altitude 10° 03:48:46 10° 11° (NNE) 2,500 6.7 -5.7°
Sets 03:51:25 0° 20° (NNE) 3,434 7.6 -5.3°
